Regional Weather Roundup
Issued by NWS

Home | Current Version | Previous Version | Text Only | Print | Product List | Glossary Off
Versions: 1 2 3 4 5 6 7 8 9 10 11 12 13 14 15 16 17 18 19 20 21 22 23 24 25 26 27 28 29 30 31 32 33 34 35 36 37 38 39 40 41 42 43 44 45 46 47 48 49 50

000
ASUS43 KIND 192109
RWRIN

WEATHER ROUNDUP FOR INDIANA
NATIONAL WEATHER SERVICE INDIANAPOLIS IN
500 PM EDT SAT MAY 19 2018

NOTE: "FAIR" INDICATES FEW OR NO CLOUDS BELOW 12,000 FEET WITH NO
SIGNIFICANT WEATHER AND/OR OBSTRUCTIONS TO VISIBILITY.

* - STATION DOES NOT REPORT WEATHER SUCH AS PRECIPITATION OR FOG.

+ - STATION NOT QUALITY CONTROLLED BY THE NATIONAL WEATHER SERVICE.
    USE DATA WITH CAUTION...ESPECIALLY DEWPOINT AND RELATIVE
    HUMIDITY OBSERVATIONS.

INZ001>003-010>013-019-020-192200-
NORTHWEST INDIANA

CITY           SKY/WX    TMP DP  RH WIND       PRES   REMARKS
GARY /AIRPORT/ PTSUNNY   59  54  82 CALM      29.90S FOG
KNOX *+        CLOUDY    70  63  78 N8        29.87F
LA PORTE +     CLOUDY    65  60  85 NW10      29.90S HAZE
MICHIGAN CITY+ CLOUDY    59  54  82 N3        29.91S
MONTICELLO +   PTSUNNY   77  64  63 NW13      29.86S
RENSSELAER +   FAIR      73  55  53 W14G22    29.88S
VALPARAISO     CLOUDY    70  62  76 N7        29.89S HAZE

$$

LMZ046-743>745-192200-
SOUTHERN LAKE MICHIGAN

STATION/POSITION TIME  TEMP    WIND        PRES    WAVE
                       AIR SEA DIR/SP/G            HT
                 (UTC) (F)     (DEG/KT/KT) (MB)    (FT)
BURNS HARBOR     2040   53      70/  6/  9 1013.2R
MICHIGAN CITY    2040   52      40/ 10/ 11   N/A
5NW MICH CITY    2100   51 52   70/  8/ 10   N/A     1

$$

INZ004-005-014>016-021>024-192200-
NORTH CENTRAL INDIANA

CITY           SKY/WX    TMP DP  RH WIND       PRES   REMARKS
ELKHART        CLOUDY    63  57  82 NW7       29.89F
GOSHEN         CLOUDY    68  64  87 NW13      29.87F FOG
LOGANSPORT +   PTSUNNY   77  63  61 W9        29.87F
PERU/GRISSOM   FAIR      78  66  65 W14       29.86F
ROCHESTER +    FAIR      77  63  61 W13       29.87S
SOUTH BEND     CLOUDY    63  59  87 NW10      29.89F FOG
WARSAW +       PTSUNNY   72  63  73 W12G20    29.86F

$$

INZ006>009-017-018-025>027-192200-
NORTHEAST INDIANA

CITY           SKY/WX    TMP DP  RH WIND       PRES   REMARKS
ANGOLA *+      PTSUNNY   70  63  78 W14       29.85S
AUBURN +       PTSUNNY   73  64  73 W15       29.85F
FORT WAYNE     PTSUNNY   77  65  66 W18G26    29.85S
HUNTINGTON +   PTSUNNY   76  64  65 NW8       29.85S
KENDALLVILLE + CLOUDY    71  62  72 W9G23     29.86F

$$

INZ028-029-035-036-043>045-051>053-192200-
WEST CENTRAL INDIANA

CITY           SKY/WX    TMP DP  RH WIND       PRES   REMARKS
CRAWFORDSVL +  PTSUNNY   77  66  69 SW10G16   29.88F
GREENCASTLE +  PTSUNNY   77  66  69 W3        29.90F
LAFAYETTE      FAIR      78  65  63 W12       29.85F
TERRE HAUTE    FAIR      81  67  62 W12       29.89F

$$

INZ030>032-037>040-046>048-054>057-064-065-192200-
CENTRAL INDIANA

CITY           SKY/WX    TMP DP  RH WIND       PRES   REMARKS
COLUMBUS       PTSUNNY   73  64  73 W9        29.92S
FRANKFORT +    CLOUDY    80  68  67 W10       29.89F
GREENWOOD *+   PTSUNNY   72  68  88 SW9       29.92S
INDIANAPOLIS   PTSUNNY   78  66  66 SW16      29.89F
-EAGLE CREEK   FAIR      79  65  62 SW7G16    29.88F
KOKOMO +       PTSUNNY   78  66  66 NW12      29.87F
MARION +       CLOUDY    74  67  77 NW10      29.88F HAZE
MT COMFORT *+  FAIR      75  73  94 SW13      29.90S
SHELBYVILLE    FAIR      73  67  81 SW13      29.91R
ZIONSVILLE +   FAIR      76  67  73 W10G17    29.89F

$$

INZ033-034-041-042-049-050-058-059-192200-
EAST CENTRAL INDIANA

CITY           SKY/WX    TMP DP  RH WIND       PRES   REMARKS
MUNCIE         PTSUNNY   76  68  76 W9        29.88S
RICHMOND +     FAIR      70  68  94 SW15      29.91F

$$

INZ060-061-067>069-081>083-085>088-192200-
SOUTHWEST INDIANA

CITY           SKY/WX    TMP DP  RH WIND       PRES   REMARKS
EVANSVILLE     FAIR      82  67  60 W12       29.93F
HUNTINGBURG +  FAIR      82  67  60 W12       29.93F
WASHINGTON +   FAIR      82  63  51 W13       29.90F

$$

INZ062-063-066-070>080-084-089>092-192200-
SOUTH CENTRAL AND SOUTHEAST INDIANA

CITY           SKY/WX    TMP DP  RH WIND       PRES   REMARKS
BATESVILLE +   MOSUNNY   73  70  88 VRB6      29.91F
BEDFORD +      PTSUNNY   75  64  69 W7        29.91F
BLOOMINGTON    FAIR      78  69  73 W10       29.91F
FRENCH LICK *+ FAIR      77  63  61 W9        29.93F
MADISON *+     FAIR      77  68  73 SW9       29.95S
NORTH VERNON + PTSUNNY   73  68  83 SW14      29.93S
SEYMOUR +      FAIR      75  68  78 W6        29.92F

$$





USA.gov is the U.S. government's official web portal to all federal, state and local government web resources and services.